Location: Fauquembergues
(50.6005°N, 2.0987°E)
Time: 10:07:10
(UTC+00:00)

Meteor 1-19 Rocket - Pass Details

Date: 27 October 2020
Orbit: 809 x 926 km, 81.2° (Epoch: 28 November)

Event Time Altitude Azimuth Distance (km) Brightness Sun altitude
Exits shadow 02:34:04 11° 349° (N) 2,598 6.9 -37.8°
Drops below altitude 10° 02:34:11 10° 350° (N) 2,631 6.9 -37.8°
Sets 02:37:24 0° 6° (N) 3,585 7.9 -37.3°
